[[{"header":{"parameterUnit":"m.s-1","parameterCategory":1,"la1":30.2991,"la2":30.254,"lo1":-89.0895,"lo2":-89.0444,"dy":0.0017,"dx":0.0017,"nx":28,"ny":28,"refTime":"2025-12-22T09:00:00:Z","depth":0,"parameterNumber":2,"parameterNumberName":"U-component_of_WINDS"},"data":[0,0,0,0,0,0,0,0,0,0,0,0,0,0,0,0,0,0,0,0,0,0,0,0,0,0,0,0,0,0,0,0,0,0,0,0,0,0,0,0,0,0,0,0,0,0,0,0,0,0,0,0,0,0,0,0,0,0,-3.08,-3.08,0,-3.0815,-3.0815,-3.0815,-3.0748,-3.0746,-3.0744,-3.0742,-3.0757,-3.0759,-3.0762,0,0,0,0,0,0,0,0,0,0,0,0,0,-3.0713,-3.0715,-3.08,-3.08,-3.08,-3.0815,-3.0815,-3.0815,-3.0748,-3.0746,-3.0744,-3.0741,-3.0756,-3.0759,-3.0762,0,0,0,0,0,0,0,0,0,0,0,0,0,-3.0742,-3.0716,-3.08,-3.0769,-3.0766,-3.0815,-3.0815,-3.0815,-3.0749,-3.0746,-3.0743,-3.074,-3.0756,-3.0759,-3.0762,-3.0842,0,0,-3.0772,-3.0774,0,0,0,0,0,0,0,0,-3.074,-3.0745,-3.0773,-3.0771,-3.0768,-3.0777,-3.079,-3.0824,-3.075,-3.0755,-3.0742,-3.0739,-3.0766,-3.0768,-3.0778,-3.0842,-3.0843,-3.0773,-3.0775,-3.0776,-3.0777,0,0,0,0,0,0,0,-3.0739,-3.0744,-3.0806,-3.0774,-3.0771,-3.0754,-3.0755,-3.0796,-3.0777,-3.0755,-3.075,-3.0753,-3.0764,-3.0774,-3.0777,-3.0843,-3.0772,-3.0775,-3.0778,-3.0779,-3.0975,-3.0978,0,0,0,0,0,0,-3.0741,-3.0743,-3.0805,-3.0806,-3.0747,-3.0758,-3.0759,-3.0777,-3.0776,-3.0773,-3.0755,-3.0749,-3.077,-3.0774,-3.0778,-3.0871,-3.0776,-3.0779,-3.0781,-3.0971,-3.0975,-3.0979,0,0,0,0,0,0,-3.0739,-3.0747,-3.0805,-3.0773,-3.0779,-3.0763,-3.0783,-3.0779,-3.0789,-3.0777,-3.0773,-3.0769,-3.0768,-3.0773,-3.0826,-3.0871,-3.0781,-3.0784,-3.0968,-3.0973,-3.0977,-3.1059,0,0,0,0,0,0,-3.0737,-3.0747,-3.0777,-3.0775,-3.0781,-3.0854,-3.0786,-3.0781,-3.0795,-3.0788,-3.0789,-3.0786,-3.0766,-3.0822,-3.083,-3.0874,-3.0786,-3.0964,-3.097,-3.0976,-3.1052,-3.1066,-3.1077,0,0,0,0,0,-3.0734,-3.0799,-3.0779,-3.0786,-3.0819,-3.0856,-3.086,-3.0836,-3.0799,-3.0829,-3.0821,-3.0786,-3.0865,-3.0828,-3.0836,-3.0882,-3.0961,-3.0968,-3.0975,-3.1046,-3.1063,-3.1077,0,0,0,0,0,0,-3.0806,-3.0798,-3.0775,-3.0841,-3.085,-3.0845,-3.0882,-3.0854,-3.0873,-3.0865,-3.0834,-3.0835,-3.0894,-3.0893,-3.0852,-3.0959,-3.0906,-3.0916,-3.0958,-3.0973,-3.0986,-3.0985,-3.0789,0,0,0,0,0,-3.083,-3.0861,-3.0852,-3.0911,-3.0917,-3.0899,-3.0914,-3.0895,-3.0902,-3.0906,-3.0902,-3.091,-3.0937,-3.0955,-3.0979,-3.1052,-3.1051,-3.1087,-3.11,-3.111,-3.1119,-3.1158,-3.1174,-3.1002,-3.1002,-3.1002,0,0,-3.0879,-3.0878,-3.09,-3.0926,-3.093,-3.0963,-3.0902,-3.094,-3.0964,-3.0911,-3.0962,-3.0959,-3.0967,-3.1031,-3.1059,-3.1032,-3.1166,-3.112,-3.1128,-3.1131,-3.1167,-3.1183,-3.1198,-3.1007,-3.1006,-3.1006,0,0,-3.0985,-3.0987,-3.1037,-3.1043,-3.1051,-3.1039,-3.1051,-3.105,-3.1047,-3.1097,-3.1058,-3.1087,-3.1133,-3.114,-3.115,-3.1261,-3.123,-3.1269,-3.1336,-3.1374,-3.1388,-3.14,-3.144,-3.1454,-3.1278,-3.1278,-3.1278,0,-3.1044,-3.1093,-3.1066,-3.1107,-3.112,-3.1074,-3.1124,-3.1131,-3.1147,-3.1156,-3.1126,-3.1184,-3.1186,-3.1251,-3.1278,-3.1288,-3.1301,-3.1269,-3.1388,-3.14,-3.141,-3.1448,-3.1463,-3.1283,-3.1282,-3.1282,-3.1281,0,-3.1166,-3.1201,-3.124,-3.1257,-3.1274,-3.1319,-3.1299,-3.132,-3.13,-3.1291,-3.1343,-3.1344,-3.1367,-3.1381,-3.1361,-3.1444,-3.1427,-3.1393,-3.134,-3.1432,-3.1467,-3.1481,-3.129,-3.1288,-3.1286,-3.1285,0,0,-3.1317,-3.1319,-3.1334,-3.1341,-3.1347,-3.1373,-3.1417,-3.144,-3.1459,-3.1471,-3.1507,-3.1548,-3.1517,-3.1528,-3.1509,-3.1543,-3.1631,-3.1504,-3.1504,-3.1528,-3.1723,-3.1749,-3.1766,-3.161,-3.1613,-3.1615,-3.1722,0,-3.1422,-3.1496,-3.1474,-3.1549,-3.1581,-3.1539,-3.1576,-3.1584,-3.1578,-3.1604,-3.1596,-3.1626,-3.1582,-3.1589,-3.162,-3.1614,-3.167,-3.1605,-3.1644,-3.1646,-3.1643,-3.1784,-3.1811,-3.1912,-3.1736,-3.1738,-3.174,0,-3.1553,-3.1571,-3.165,-3.1651,-3.1664,-3.1698,-3.1719,-3.1744,-3.1752,-3.1745,-3.1758,-3.1732,-3.1775,-3.1722,-3.1781,-3.1738,-3.1753,-3.1752,-3.1755,-3.1758,-3.1698,-3.179,-3.1943,-3.1959,-3.1761,-3.1759,-3.1758,0,-3.1656,-3.17,-3.1753,-3.176,-3.1763,-3.1789,-3.1791,-3.1796,-3.1812,-3.183,-3.184,-3.1862,-3.1875,-3.1893,-3.1874,-3.1837,-3.1936,-3.1881,-3.1932,-3.1932,-3.1954,-3.1953,-3.2112,-3.1964,-3.1964,-3.1963,-3.1963,0,-3.1775,-3.1825,-3.1799,-3.1832,-3.1887,-3.1861,-3.1916,-3.1913,-3.1919,-3.195,-3.1915,-3.1945,-3.1918,-3.1946,-3.1931,-3.1983,-3.1989,-3.1984,-3.198,-3.1987,-3.1988,-3.1996,-3.1989,-3.1967,-3.1966,-3.1966,-3.1965,0,-3.1899,-3.1884,-3.1939,-3.1937,-3.1938,-3.1979,-3.1977,-3.2008,-3.1999,-3.2039,-3.2047,-3.2033,-3.2064,-3.2047,-3.2079,-3.2069,-3.2136,-3.2122,-3.2134,-3.213,-3.2182,-3.2178,-3.2352,-3.2374,-3.2211,-3.2213,-3.2214,0,-3.1976,-3.2013,-3.2016,-3.2035,-3.204,-3.207,-3.2086,-3.2063,-3.2081,-3.2094,-3.2123,-3.2151,-3.2172,-3.2225,-3.2217,-3.2242,-3.2228,-3.2288,-3.2232,-3.2239,-3.223,-3.2228,-3.2231,-3.2299,-3.2301,-3.2302,-3.2304,0,-3.2114,-3.2105,-3.2129,-3.2153,-3.2173,-3.219,-3.2203,-3.2221,-3.2197,-3.222,-3.2252,-3.2268,-3.2302,-3.233,-3.2352,-3.2354,-3.2326,-3.2321,-3.2334,-3.2343,-3.2348,-3.2346,-3.2165,-3.2317,-3.2316,-3.2315,-3.2314,-3.2314,-3.2216,-3.2248,-3.2255,-3.2285,-3.2293,-3.2307,-3.2335,-3.233,-3.2356,-3.2382,-3.2366,-3.2404,-3.2412,-3.2438,-3.2444,-3.2473,-3.2449,-3.2468,-3.2473,-3.2478,-3.2485,-3.2344,-3.2477,-3.2477,-3.2476,-3.2476,-3.2476,0,-3.2353,-3.2356,-3.2383,-3.2404,-3.2427,-3.2398,-3.2412,-3.2434,-3.2467,-3.2477,-3.25,-3.2537,-3.2565,-3.256,-3.2586,-3.261,-3.2598,-3.2618,-3.2616,-3.2617,-3.2505,-3.2491,-3.2627,-3.2627,-3.2627,-3.2627,-3.2627,-3.2627,-3.2427,-3.2479,-3.2471,-3.2527,-3.253,-3.2567,-3.2577,-3.259,-3.2598,-3.2641,-3.2664,-3.2661,-3.2666,-3.2692,-3.2717,-3.2714,-3.2726,-3.2751,-3.2744,-3.264,-3.2625,-3.261,-3.2597,-3.2753,-3.2753,-3.2853,-3.2854,-3.2855]},{"header":{"parameterUnit":"m.s-1","parameterCategory":1,"la1":30.2991,"la2":30.254,"lo1":-89.0895,"lo2":-89.0444,"dy":0.0017,"dx":0.0017,"nx":28,"ny":28,"refTime":"2025-12-22T09:00:00:Z","depth":0,"parameterNumber":3,"parameterNumberName":"V-component_of_WINDS"},"data":[0,0,0,0,0,0,0,0,0,0,0,0,0,0,0,0,0,0,0,0,0,0,0,0,0,0,0,0,0,0,0,0,0,0,0,0,0,0,0,0,0,0,0,0,0,0,0,0,0,0,0,0,0,0,0,0,0,0,1.5964,1.5965,0,1.6144,1.6146,1.6148,1.6201,1.62,1.6199,1.6198,1.6382,1.6387,1.6393,0,0,0,0,0,0,0,0,0,0,0,0,0,1.5667,1.5672,1.5963,1.5966,1.5968,1.6143,1.6146,1.6148,1.6201,1.62,1.6199,1.6198,1.638,1.6387,1.6394,0,0,0,0,0,0,0,0,0,0,0,0,0,1.5816,1.5674,1.5963,1.6016,1.6022,1.6143,1.6146,1.6149,1.6202,1.62,1.6199,1.6197,1.6378,1.6386,1.6395,1.6475,0,0,1.6421,1.6425,0,0,0,0,0,0,0,0,1.5808,1.5827,1.6006,1.6012,1.602,1.6149,1.6109,1.6258,1.6202,1.6133,1.6198,1.6197,1.6305,1.632,1.6356,1.6484,1.6492,1.6422,1.6427,1.6431,1.6433,0,0,0,0,0,0,0,1.5797,1.582,1.6035,1.6008,1.6017,1.6031,1.605,1.6137,1.6225,1.6139,1.6144,1.6164,1.6309,1.6348,1.6361,1.6495,1.6421,1.6429,1.6434,1.6438,1.6702,1.6704,0,0,0,0,0,0,1.5778,1.5811,1.6029,1.604,1.5908,1.6037,1.6059,1.6109,1.6224,1.624,1.6165,1.6166,1.6334,1.6351,1.6368,1.6473,1.643,1.6439,1.6443,1.67,1.6702,1.6704,0,0,0,0,0,0,1.5772,1.5797,1.6022,1.5927,1.5956,1.6044,1.6099,1.6113,1.6152,1.6244,1.626,1.6189,1.6334,1.6356,1.6449,1.648,1.6442,1.645,1.6698,1.6701,1.6704,1.6683,0,0,0,0,0,0,1.5763,1.5794,1.5825,1.5927,1.5961,1.61,1.6101,1.6117,1.6167,1.617,1.627,1.6286,1.6334,1.6436,1.6458,1.6492,1.6457,1.6696,1.6699,1.6703,1.6681,1.6684,1.6687,0,0,0,0,0,1.5752,1.5811,1.5827,1.5853,1.6002,1.6101,1.6121,1.6176,1.6169,1.6202,1.6261,1.6283,1.6473,1.6445,1.647,1.6507,1.6694,1.6698,1.6702,1.668,1.6684,1.6687,0,0,0,0,0,0,1.571,1.5825,1.5844,1.5937,1.6009,1.611,1.6153,1.6178,1.6252,1.6252,1.6317,1.6339,1.6429,1.6477,1.6444,1.6593,1.6584,1.6594,1.6559,1.6563,1.6566,1.6554,1.6464,0,0,0,0,0,1.5711,1.5782,1.5879,1.5953,1.5988,1.6064,1.6109,1.6146,1.6223,1.6253,1.6319,1.6393,1.647,1.6519,1.6594,1.6688,1.6713,1.6726,1.6729,1.6731,1.6739,1.6796,1.6804,1.6718,1.6718,1.6718,0,0,1.5715,1.5787,1.5828,1.5946,1.6006,1.6079,1.6089,1.6165,1.622,1.6264,1.6358,1.6409,1.6496,1.6591,1.6636,1.6634,1.6768,1.6736,1.6737,1.6744,1.6801,1.6809,1.6816,1.6721,1.6721,1.672,0,0,1.576,1.5821,1.589,1.5951,1.6042,1.6093,1.611,1.6208,1.6244,1.6339,1.6375,1.6441,1.6571,1.6633,1.6681,1.6754,1.6777,1.6776,1.6793,1.6848,1.6855,1.6861,1.6889,1.6899,1.6783,1.6783,1.6783,0,1.5753,1.5865,1.5923,1.5999,1.6051,1.6095,1.6168,1.6223,1.6334,1.637,1.6366,1.6533,1.6594,1.6706,1.6724,1.6761,1.6783,1.6765,1.6849,1.6856,1.6863,1.6891,1.6901,1.6783,1.6783,1.6783,1.6783,0,1.5854,1.5931,1.5976,1.6084,1.6141,1.6214,1.6285,1.6336,1.6368,1.6419,1.6517,1.6593,1.6686,1.6715,1.6746,1.6833,1.6829,1.6836,1.6829,1.6869,1.6897,1.6908,1.6782,1.6782,1.6783,1.6783,0,0,1.5876,1.6017,1.6033,1.6084,1.619,1.6251,1.6327,1.642,1.6464,1.6539,1.6606,1.6717,1.6726,1.678,1.6819,1.6867,1.6923,1.6869,1.6872,1.6879,1.7027,1.7022,1.7033,1.6939,1.6941,1.6943,1.702,0,1.5936,1.6075,1.6131,1.6244,1.6317,1.6362,1.6429,1.6502,1.6553,1.6623,1.6679,1.6758,1.6761,1.6795,1.6844,1.6906,1.6954,1.6901,1.7004,1.7007,1.6983,1.7047,1.7042,1.7111,1.7031,1.7033,1.7034,0,1.6025,1.6103,1.6224,1.6324,1.6357,1.6416,1.6507,1.6573,1.6657,1.6691,1.6754,1.6791,1.6875,1.6861,1.6979,1.6941,1.6987,1.7024,1.7028,1.7041,1.7024,1.7064,1.7134,1.7146,1.7051,1.705,1.7049,0,1.6032,1.6168,1.6259,1.6301,1.6419,1.646,1.6511,1.6594,1.6647,1.6727,1.6763,1.685,1.6899,1.6966,1.7027,1.7011,1.714,1.713,1.7172,1.717,1.7198,1.7195,1.7278,1.7223,1.7223,1.7223,1.7223,0,1.6095,1.6167,1.6264,1.632,1.6404,1.6468,1.6549,1.6603,1.6677,1.6746,1.6789,1.6852,1.6927,1.7001,1.7048,1.714,1.7161,1.7192,1.7204,1.7189,1.7186,1.7221,1.7219,1.7226,1.7225,1.7225,1.7224,0,1.6117,1.6185,1.6287,1.6392,1.642,1.6477,1.6567,1.6624,1.6678,1.6764,1.6788,1.6872,1.6961,1.7028,1.7142,1.7175,1.7274,1.7285,1.7246,1.7252,1.7291,1.7287,1.7401,1.7421,1.735,1.735,1.7351,0,1.6154,1.6211,1.6323,1.6372,1.6424,1.6502,1.6558,1.6624,1.668,1.6782,1.6827,1.692,1.6997,1.7137,1.7209,1.7298,1.7314,1.7347,1.7327,1.7312,1.7318,1.7314,1.7322,1.735,1.7351,1.7351,1.7351,0,1.6212,1.6244,1.6322,1.6413,1.6479,1.6553,1.6628,1.6666,1.6746,1.6807,1.69,1.696,1.7079,1.7171,1.7268,1.7321,1.7351,1.7357,1.7372,1.7359,1.7335,1.7351,1.7256,1.7355,1.7354,1.7354,1.7354,1.7354,1.6245,1.6299,1.6388,1.6474,1.6539,1.6609,1.6669,1.6731,1.681,1.6912,1.6946,1.7043,1.7129,1.7262,1.7317,1.7394,1.7394,1.7414,1.742,1.7425,1.7425,1.7321,1.7411,1.7411,1.7411,1.7411,1.7411,0,1.6308,1.6368,1.6447,1.6552,1.6622,1.6644,1.6729,1.6786,1.687,1.6948,1.7025,1.7132,1.7223,1.7303,1.7397,1.7444,1.746,1.7466,1.7465,1.7477,1.7418,1.7397,1.7452,1.7452,1.7452,1.7452,1.7452,1.7452,1.6349,1.6444,1.6486,1.6614,1.6674,1.6769,1.6817,1.6883,1.6946,1.7065,1.714,1.7192,1.7272,1.7373,1.7458,1.7479,1.7513,1.7517,1.7542,1.7486,1.7481,1.7476,1.7457,1.7523,1.7523,1.7595,1.7596,1.7596]}]]